TimeMDT,TemperatureF,Dew PointF,Humidity,Sea Level PressureIn,VisibilityMPH,Wind Direction,Wind SpeedMPH,Gust SpeedMPH,PrecipitationIn,Events,Conditions,WindDirDegrees,DateUTC
12:00 AM,22,20,87,30.47,,Calm,Calm,,,,,,2012-10-05 06:00:00
12:00 AM,21.9,19.8,91,30.47,-9999.0,Calm,Calm,-,N/A,,Unknown,0,2012-10-05 06:00:00
1:00 AM,20.5,18.7,93,30.48,-9999.0,Calm,Calm,-,N/A,,Unknown,0,2012-10-05 07:00:00
2:00 AM,19.2,17.4,93,30.48,-9999.0,East,1.2,-,N/A,,Unknown,90,2012-10-05 08:00:00
3:00 AM,17.8,16.3,94,30.49,-9999.0,Calm,Calm,-,N/A,,Unknown,0,2012-10-05 09:00:00
4:00 AM,17.6,16.2,94,30.48,-9999.0,Calm,Calm,-,N/A,,Unknown,0,2012-10-05 10:00:00
5:00 AM,27.5,21.7,79,30.45,-9999.0,WSW,3.5,-,N/A,,Unknown,240,2012-10-05 11:00:00
6:00 AM,27.3,20.8,77,30.48,-9999.0,West,5.8,-,N/A,,Unknown,260,2012-10-05 12:00:00
7:00 AM,26.8,20.5,77,30.51,-9999.0,WSW,3.5,-,N/A,,Unknown,240,2012-10-05 13:00:00
8:00 AM,25.2,19.8,80,30.54,-9999.0,WSW,3.5,-,N/A,,Unknown,250,2012-10-05 14:00:00
9:00 AM,26.4,20.3,78,30.55,-9999.0,SE,1.2,-,N/A,,Unknown,130,2012-10-05 15:00:00
10:00 AM,30.2,20.8,68,30.55,-9999.0,East,1.2,-,N/A,,Unknown,100,2012-10-05 16:00:00
11:00 AM,34.5,21.2,58,30.54,-9999.0,WSW,4.6,-,N/A,,Unknown,250,2012-10-05 17:00:00
12:00 PM,40,21,34,30.51,,NW,3.5,,,,,310,2012-10-05 18:00:00
12:00 PM,39.6,21.4,48,30.51,-9999.0,NW,3.5,-,N/A,,Unknown,310,2012-10-05 18:00:00
1:00 PM,42.8,20.3,41,30.48,-9999.0,East,3.5,-,N/A,,Unknown,90,2012-10-05 19:00:00
2:00 PM,46.6,18.9,33,30.46,-9999.0,East,3.5,-,N/A,,Unknown,90,2012-10-05 20:00:00
3:00 PM,47.7,16.0,28,30.44,-9999.0,NE,3.5,-,N/A,,Unknown,50,2012-10-05 21:00:00
4:00 PM,49.3,17.2,28,30.39,-9999.0,ENE,4.6,-,N/A,,Unknown,60,2012-10-05 22:00:00
5:00 PM,49.6,17.4,28,30.38,-9999.0,East,2.3,-,N/A,,Unknown,100,2012-10-05 23:00:00
6:00 PM,47,19,20,30.38,,NNE,4.6,,,,,30,2012-10-06 00:00:00
6:00 PM,46.9,19.2,33,30.38,-9999.0,NNE,4.6,-,N/A,,Unknown,30,2012-10-06 00:00:00
7:00 PM,37.0,23.7,59,30.40,-9999.0,WNW,2.3,-,N/A,,Unknown,300,2012-10-06 01:00:00
8:00 PM,28.6,22.3,77,30.43,-9999.0,WSW,1.2,-,N/A,,Unknown,250,2012-10-06 02:00:00
9:00 PM,26.1,21.6,83,30.42,-9999.0,Calm,Calm,-,N/A,,Unknown,0,2012-10-06 03:00:00
10:00 PM,25.0,21.0,85,30.40,-9999.0,SE,1.2,-,N/A,,Unknown,130,2012-10-06 04:00:00
11:00 PM,28.2,22.3,78,30.36,-9999.0,SSW,2.3,-,N/A,,Unknown,210,2012-10-06 05:00:00